Location: Bannatyne
(13.0833°N, 59.5333°W)
Time: 05:51:13
(UTC+00:00)

Envisat - Pass Details

Date: 22 June 2021
Orbit: 764 x 766 km, 98.2° (Epoch: 03 August)

Event Time Altitude Azimuth Distance (km) Brightness Sun altitude
Rises 08:01:48 0° 42° (NE) 3,220 7.6 -20.6°
Reaches altitude 10° 08:05:07 10° 64° (ENE) 2,294 6.7 -19.9°
Maximum altitude 08:07:57 15° 99° (E) 1,963 5.8 -19.3°
Drops below altitude 10° 08:10:46 10° 133° (SE) 2,293 5.7 -18.7°
Sets 08:14:03 0° 156° (SSE) 3,217 6.2 -18.0°
